{"data":{"norad_id":63832,"epoch":"2026-09-20T23:32:12.293376Z","epoch_age_seconds":108313,"freshness":"FRESH","line1":"1 63832U 25092AE  26263.98069784  .00004017  00000+0  15541-3 0  9990","line2":"2 63832  43.0003 149.4890 0001219 273.9272  86.1440 15.27579917 78533","mean_motion":15.27579917,"eccentricity":0.0001219,"inclination_deg":43.0003,"raan_deg":149.489,"arg_perigee_deg":273.9272,"mean_anomaly_deg":86.144,"bstar":0.00015541,"rev_number":7853,"period_min":94.26675383557,"perigee_km":482.21296595612,"apogee_km":483.88572318693,"semimajor_km":6861.1863445715,"source":"CELESTRAK","updated_at":"2026-09-21T09:00:35.109972Z"}}